Location: Artiguedieu
(43.5000°N, 0.5454°E)
Time: 18:51:33
(UTC+00:00)

Vanguard 3 - Visible Passes

Search period start: 27 July 2021 00:00
Search period end: 06 August 2021 00:00
Orbit: 508 x 3261 km, 33.4° (Epoch: 26 July)

Date Brightness Start Highest point End Pass type
(mag) Time Alt. Az. Time Alt. Az. Time Alt. Az.
27 Jul 10.1 01:40:54 10° W 01:52:06 25° SW 01:52:06 25° SW visible
27 Jul 10.2 19:50:42 10° WSW 20:08:37 58° SSE 20:26:44 10° E visible
27 Jul 9.9 22:05:19 10° W 22:24:36 59° S 22:36:15 23° ESE visible
28 Jul 9.8 00:22:18 10° W 00:38:52 38° SW 00:40:41 38° SSW visible
28 Jul 10.8 02:45:01 10° WSW 02:45:06 10° WSW 02:45:06 10° WSW visible
28 Jul 10.1 20:48:59 10° WSW 21:07:43 62° S 21:24:58 11° ESE visible
28 Jul 9.9 23:04:39 10° W 23:23:13 50° SSW 23:29:23 38° SSE visible
29 Jul 10.4 01:23:17 10° W 01:33:50 24° SW 01:33:50 24° SW visible
29 Jul 10.2 19:33:27 10° WSW 19:50:43 60° S 20:09:26 10° E visible
29 Jul 10.0 21:47:47 10° W 22:06:46 58° SSW 22:18:13 26° SE visible
30 Jul 10.0 00:04:33 10° W 00:21:09 37° SW 00:22:40 36° SSW visible
30 Jul 10.1 20:31:40 10° WSW 20:49:51 61° S 21:07:07 12° ESE visible
30 Jul 10.0 22:47:01 10° W 23:05:24 48° SSW 23:11:34 38° SSE visible
31 Jul 10.6 01:05:47 10° W 01:16:01 22° WSW 01:16:01 22° WSW visible
31 Jul 10.2 19:16:21 10° WSW 19:32:52 60° S 19:52:01 10° E visible
31 Jul 10.1 21:30:22 10° W 21:48:53 56° SSW 22:00:32 27° SE visible
31 Jul 10.2 23:46:56 10° W 00:03:20 35° SW 00:04:59 34° SSW visible
01 Aug 10.2 20:14:30 10° W 20:31:58 61° S 20:49:33 13° ESE visible
01 Aug 10.1 22:29:32 10° W 22:47:30 46° SSW 22:54:01 36° SSE visible
02 Aug 10.7 00:48:29 10° W 00:58:28 20° WSW 00:58:28 20° WSW visible
02 Aug 10.2 21:13:06 10° W 21:30:59 54° SSW 21:43:05 26° SE visible
02 Aug 10.3 23:29:30 10° W 23:45:27 32° SW 23:47:33 32° SSW visible
03 Aug 10.2 19:57:28 10° W 20:14:07 60° S 20:32:13 12° ESE visible
03 Aug 10.2 22:12:11 10° W 22:29:33 43° SSW 22:36:41 33° S visible
04 Aug 10.8 00:31:28 10° W 00:41:09 18° SW 00:41:09 18° SW visible
04 Aug 10.3 20:55:58 10° W 21:13:04 52° SSW 21:25:51 24° SE visible
04 Aug 10.5 23:12:14 10° W 23:27:31 30° SW 23:30:20 29° SSW visible
05 Aug 10.2 19:40:34 10° W 19:56:18 58° S 20:15:05 11° ESE visible
05 Aug 10.4 21:55:02 10° W 22:11:36 40° SSW 22:19:33 30° S visible
